Year,Month,Day,Hour,Minute,Value (Times are PST for temperature in C)
2019,02,27,00,00,-4.20
2019,02,27,00,01,-4.20
2019,02,27,00,02,-4.20
2019,02,27,00,03,-4.20
2019,02,27,00,04,-4.20
2019,02,27,00,05,-4.20
2019,02,27,00,06,-4.20
2019,02,27,00,07,-4.20
2019,02,27,00,08,-4.20
2019,02,27,00,09,-4.30
2019,02,27,00,10,-4.30
2019,02,27,00,11,-4.30
2019,02,27,00,12,-4.30
2019,02,27,00,13,-4.30
2019,02,27,00,14,-4.30
2019,02,27,00,15,-4.30
2019,02,27,00,16,-4.30
2019,02,27,00,17,-4.30
2019,02,27,00,18,-4.30
2019,02,27,00,19,-4.40
2019,02,27,00,20,-4.40
2019,02,27,00,21,-4.40
2019,02,27,00,22,-4.40
2019,02,27,00,23,-4.40
2019,02,27,00,24,-4.40
2019,02,27,00,25,-4.40
2019,02,27,00,26,-4.40
2019,02,27,00,27,-4.50
2019,02,27,00,28,-4.50
2019,02,27,00,29,-4.50
2019,02,27,00,30,-4.50
2019,02,27,00,31,-4.60
2019,02,27,00,32,-4.60
2019,02,27,00,33,-4.60
2019,02,27,00,34,-4.60
2019,02,27,00,35,-4.60
2019,02,27,00,36,-4.60
2019,02,27,00,37,-4.70
2019,02,27,00,38,-4.70
2019,02,27,00,39,-4.70
2019,02,27,00,40,-4.70
2019,02,27,00,41,-4.70
2019,02,27,00,42,-4.80
2019,02,27,00,43,-4.80
2019,02,27,00,44,-4.80
2019,02,27,00,45,-4.80
2019,02,27,00,46,-4.80
2019,02,27,00,47,-4.80
2019,02,27,00,48,-4.80
2019,02,27,00,49,-4.80
2019,02,27,00,50,-4.70
2019,02,27,00,51,-4.70
2019,02,27,00,52,-4.70
2019,02,27,00,53,-4.70
2019,02,27,00,54,-4.70
2019,02,27,00,55,-4.70
2019,02,27,00,56,-4.70
2019,02,27,00,57,-4.70
2019,02,27,00,58,-4.80
2019,02,27,00,59,-4.80
2019,02,27,01,00,-4.80
2019,02,27,01,01,-4.80
2019,02,27,01,02,-4.80
2019,02,27,01,03,-4.80
2019,02,27,01,04,-4.80
2019,02,27,01,05,-4.80
2019,02,27,01,06,-4.80
2019,02,27,01,07,-4.90
2019,02,27,01,08,-4.90
2019,02,27,01,09,-4.90
2019,02,27,01,10,-4.80
2019,02,27,01,11,-4.90
2019,02,27,01,12,-4.80
2019,02,27,01,13,-4.90
2019,02,27,01,14,-4.90
2019,02,27,01,15,-4.90
2019,02,27,01,16,-4.90
2019,02,27,01,17,-4.90
2019,02,27,01,18,-4.90
2019,02,27,01,19,-4.90
2019,02,27,01,20,-4.90
2019,02,27,01,21,-4.90
2019,02,27,01,22,-4.90
2019,02,27,01,23,-5.00
2019,02,27,01,24,-5.00
2019,02,27,01,25,-5.00
2019,02,27,01,26,-5.00
2019,02,27,01,27,-5.00
2019,02,27,01,28,-5.00
2019,02,27,01,29,-5.10
2019,02,27,01,30,-5.10
2019,02,27,01,31,-5.10
2019,02,27,01,32,-5.10
2019,02,27,01,33,-5.10
2019,02,27,01,34,-5.10
2019,02,27,01,35,-5.10
2019,02,27,01,36,-5.10
2019,02,27,01,37,-5.10
2019,02,27,01,38,-5.10
2019,02,27,01,39,-5.20
2019,02,27,01,40,-5.20
2019,02,27,01,41,-5.20
2019,02,27,01,42,-5.20
2019,02,27,01,43,-5.20
2019,02,27,01,44,-5.20
2019,02,27,01,45,-5.20
2019,02,27,01,46,-5.20
2019,02,27,01,47,-5.20
2019,02,27,01,48,-5.20
2019,02,27,01,49,-5.30
2019,02,27,01,50,-5.30
2019,02,27,01,51,-5.30
2019,02,27,01,52,-5.30
2019,02,27,01,53,-5.30
2019,02,27,01,54,-5.40
2019,02,27,01,55,-5.40
2019,02,27,01,56,-5.40
2019,02,27,01,57,-5.40
2019,02,27,01,58,-5.40
2019,02,27,01,59,-5.40
2019,02,27,02,00,-5.40
2019,02,27,02,01,-5.40
2019,02,27,02,02,-5.50
2019,02,27,02,03,-5.50
2019,02,27,02,04,-5.50
2019,02,27,02,05,-5.50
2019,02,27,02,06,-5.50
2019,02,27,02,07,-5.50
2019,02,27,02,08,-5.50
2019,02,27,02,09,-5.50
2019,02,27,02,10,-5.50
2019,02,27,02,11,-5.50
2019,02,27,02,12,-5.50
2019,02,27,02,13,-5.50
2019,02,27,02,14,-5.50
2019,02,27,02,15,-5.50
2019,02,27,02,16,-5.50
2019,02,27,02,17,-5.50
2019,02,27,02,18,-5.50
2019,02,27,02,19,-5.50
2019,02,27,02,20,-5.60
2019,02,27,02,21,-5.60
2019,02,27,02,22,-5.60
2019,02,27,02,23,-5.60
2019,02,27,02,24,-5.60
2019,02,27,02,25,-5.60
2019,02,27,02,26,-5.60
2019,02,27,02,27,-5.60
2019,02,27,02,28,-5.60
2019,02,27,02,29,-5.60
2019,02,27,02,30,-5.70
2019,02,27,02,31,-5.70
2019,02,27,02,32,-5.70
2019,02,27,02,33,-5.70
2019,02,27,02,34,-5.70
2019,02,27,02,35,-5.70
2019,02,27,02,36,-5.70
2019,02,27,02,37,-5.70
2019,02,27,02,38,-5.70
2019,02,27,02,39,-5.70
2019,02,27,02,40,-5.70
2019,02,27,02,41,-5.70
2019,02,27,02,42,-5.70
2019,02,27,02,43,-5.70
2019,02,27,02,44,-5.80
2019,02,27,02,45,-5.80
2019,02,27,02,46,-5.80
2019,02,27,02,47,-5.80
2019,02,27,02,48,-5.80
2019,02,27,02,49,-5.80
2019,02,27,02,50,-5.80
2019,02,27,02,51,-5.80
2019,02,27,02,52,-5.80
2019,02,27,02,53,-5.90
2019,02,27,02,54,-5.90
2019,02,27,02,55,-5.90
2019,02,27,02,56,-5.90
2019,02,27,02,57,-5.90
2019,02,27,02,58,-5.90
2019,02,27,02,59,-5.90
2019,02,27,03,00,-6.00
2019,02,27,03,01,-6.00
2019,02,27,03,02,-6.00
2019,02,27,03,03,-6.00
2019,02,27,03,04,-6.10
2019,02,27,03,05,-6.10
2019,02,27,03,06,-6.10
2019,02,27,03,07,-6.10
2019,02,27,03,08,-6.10
2019,02,27,03,09,-6.10
2019,02,27,03,10,-6.10
2019,02,27,03,11,-6.20
2019,02,27,03,12,-6.20
2019,02,27,03,13,-6.20
2019,02,27,03,14,-6.20
2019,02,27,03,15,-6.20
2019,02,27,03,16,-6.20
2019,02,27,03,17,-6.20
2019,02,27,03,18,-6.20
2019,02,27,03,19,-6.20
2019,02,27,03,20,-6.20
2019,02,27,03,21,-6.20
2019,02,27,03,22,-6.20
2019,02,27,03,23,-6.20
2019,02,27,03,24,-6.20
2019,02,27,03,25,-6.20
2019,02,27,03,26,-6.30
2019,02,27,03,27,-6.30
2019,02,27,03,28,-6.30
2019,02,27,03,29,-6.30
2019,02,27,03,30,-6.30
2019,02,27,03,31,-6.30
2019,02,27,03,32,-6.30
2019,02,27,03,33,-6.30
2019,02,27,03,34,-6.30
2019,02,27,03,35,-6.30
2019,02,27,03,36,-6.30
2019,02,27,03,37,-6.30
2019,02,27,03,38,-6.30
2019,02,27,03,39,-6.30
2019,02,27,03,40,-6.40
2019,02,27,03,41,-6.40
2019,02,27,03,42,-6.40
2019,02,27,03,43,-6.40
2019,02,27,03,44,-6.40
2019,02,27,03,45,-6.40
2019,02,27,03,46,-6.40
2019,02,27,03,47,-6.50
2019,02,27,03,48,-6.50
2019,02,27,03,49,-6.50
2019,02,27,03,50,-6.50
2019,02,27,03,51,-6.50
2019,02,27,03,52,-6.50
2019,02,27,03,53,-6.50
2019,02,27,03,54,-6.50
2019,02,27,03,55,-6.50
2019,02,27,03,56,-6.60
2019,02,27,03,57,-6.60
2019,02,27,03,58,-6.60
2019,02,27,03,59,-6.60
2019,02,27,04,00,-6.60
2019,02,27,04,01,-6.60
2019,02,27,04,02,-6.60
2019,02,27,04,03,-6.60
2019,02,27,04,04,-6.70
2019,02,27,04,05,-6.70
2019,02,27,04,06,-6.70
2019,02,27,04,07,-6.70
2019,02,27,04,08,-6.70
2019,02,27,04,09,-6.70
2019,02,27,04,10,-6.70
2019,02,27,04,11,-6.70
2019,02,27,04,12,-6.70
2019,02,27,04,13,-6.70
2019,02,27,04,14,-6.70
2019,02,27,04,15,-6.80
2019,02,27,04,16,-6.80
2019,02,27,04,17,-6.80
2019,02,27,04,18,-6.80
2019,02,27,04,19,-6.80
2019,02,27,04,20,-6.80
2019,02,27,04,21,-6.80
2019,02,27,04,22,-6.80
2019,02,27,04,23,-6.80
2019,02,27,04,24,-6.80
2019,02,27,04,25,-6.80
2019,02,27,04,26,-6.80
2019,02,27,04,27,-6.80
2019,02,27,04,28,-6.80
2019,02,27,04,29,-6.80
2019,02,27,04,30,-6.90
2019,02,27,04,31,-6.90
2019,02,27,04,32,-6.90
2019,02,27,04,33,-6.90
2019,02,27,04,34,-6.90
2019,02,27,04,35,-6.90
2019,02,27,04,36,-6.90
2019,02,27,04,37,-6.90
2019,02,27,04,38,-6.90
2019,02,27,04,39,-6.90
2019,02,27,04,40,-6.90
2019,02,27,04,41,-6.90
2019,02,27,04,42,-6.90
2019,02,27,04,43,-7.00
2019,02,27,04,44,-7.00
2019,02,27,04,45,-7.00
2019,02,27,04,46,-7.00
2019,02,27,04,47,-7.00
2019,02,27,04,48,-7.00
2019,02,27,04,49,-7.00
2019,02,27,04,50,-7.00
2019,02,27,04,51,-7.00
2019,02,27,04,52,-7.00
2019,02,27,04,53,-7.00
2019,02,27,04,54,-7.00
2019,02,27,04,55,-7.10
2019,02,27,04,56,-7.10
2019,02,27,04,57,-7.10
2019,02,27,04,58,-7.10
2019,02,27,04,59,-7.10
2019,02,27,05,00,-7.10
2019,02,27,05,01,-7.10
2019,02,27,05,02,-7.10
2019,02,27,05,03,-7.10
2019,02,27,05,04,-7.10
2019,02,27,05,05,-7.10
2019,02,27,05,06,-7.10
2019,02,27,05,07,-7.10
2019,02,27,05,08,-7.20
2019,02,27,05,09,-7.20
2019,02,27,05,10,-7.20
2019,02,27,05,11,-7.20
2019,02,27,05,12,-7.20
2019,02,27,05,13,-7.20
2019,02,27,05,14,-7.20
2019,02,27,05,15,-7.20
2019,02,27,05,16,-7.20
2019,02,27,05,17,-7.20
2019,02,27,05,18,-7.20
2019,02,27,05,19,-7.20
2019,02,27,05,20,-7.20
2019,02,27,05,21,-7.20
2019,02,27,05,22,-7.20
2019,02,27,05,23,-7.30
2019,02,27,05,24,-7.30
2019,02,27,05,25,-7.30
2019,02,27,05,26,-7.30
2019,02,27,05,27,-7.30
2019,02,27,05,28,-7.30
2019,02,27,05,29,-7.30
2019,02,27,05,30,-7.30
2019,02,27,05,31,-7.30
2019,02,27,05,32,-7.30
2019,02,27,05,33,-7.30
2019,02,27,05,34,-7.30
2019,02,27,05,35,-7.30
2019,02,27,05,36,-7.30
2019,02,27,05,37,-7.30
2019,02,27,05,38,-7.30
2019,02,27,05,39,-7.30
2019,02,27,05,40,-7.30
2019,02,27,05,41,-7.40
2019,02,27,05,42,-7.40
2019,02,27,05,43,-7.40
2019,02,27,05,44,-7.40
2019,02,27,05,45,-7.40
2019,02,27,05,46,-7.40
2019,02,27,05,47,-7.40
2019,02,27,05,48,-7.40
2019,02,27,05,49,-7.30
2019,02,27,05,50,-7.30
2019,02,27,05,51,-7.30
2019,02,27,05,52,-7.30
2019,02,27,05,53,-7.30
2019,02,27,05,54,-7.30
2019,02,27,05,55,-7.30
2019,02,27,05,56,-7.30
2019,02,27,05,57,-7.30
2019,02,27,05,58,-7.30
2019,02,27,05,59,-7.30
2019,02,27,06,00,-7.30
2019,02,27,06,01,-7.30
2019,02,27,06,02,-7.30
2019,02,27,06,03,-7.30
2019,02,27,06,04,-7.30
2019,02,27,06,05,-7.30
2019,02,27,06,06,-7.30
2019,02,27,06,07,-7.30
2019,02,27,06,08,-7.30
2019,02,27,06,09,-7.30
2019,02,27,06,10,-7.30
2019,02,27,06,11,-7.30
2019,02,27,06,12,-7.30
2019,02,27,06,13,-7.30
2019,02,27,06,14,-7.30
2019,02,27,06,15,-7.40
2019,02,27,06,16,-7.40
2019,02,27,06,17,-7.40
2019,02,27,06,18,-7.40
2019,02,27,06,19,-7.40
2019,02,27,06,20,-7.40
2019,02,27,06,21,-7.40
2019,02,27,06,22,-7.40
2019,02,27,06,23,-7.40
2019,02,27,06,24,-7.40
2019,02,27,06,25,-7.40
2019,02,27,06,26,-7.40
2019,02,27,06,27,-7.40
2019,02,27,06,28,-7.30
2019,02,27,06,29,-7.30
2019,02,27,06,30,-7.30
2019,02,27,06,31,-7.30
2019,02,27,06,32,-7.30
2019,02,27,06,33,-7.30
2019,02,27,06,34,-7.30
2019,02,27,06,35,-7.30
2019,02,27,06,36,-7.30
2019,02,27,06,37,-7.20
2019,02,27,06,38,-7.20
2019,02,27,06,39,-7.20
2019,02,27,06,40,-7.20
2019,02,27,06,41,-7.20
2019,02,27,06,42,-7.20
2019,02,27,06,43,-7.20
2019,02,27,06,44,-7.20
2019,02,27,06,45,-7.20
2019,02,27,06,46,-7.20
2019,02,27,06,47,-7.10
2019,02,27,06,48,-7.10
2019,02,27,06,49,-7.10
2019,02,27,06,50,-7.10
2019,02,27,06,51,-7.10
2019,02,27,06,52,-7.00
2019,02,27,06,53,-7.00
2019,02,27,06,54,-7.00
2019,02,27,06,55,-7.00
2019,02,27,06,56,-7.00
2019,02,27,06,57,-6.90
2019,02,27,06,58,-6.90
2019,02,27,06,59,-6.90
2019,02,27,07,00,-6.90
2019,02,27,07,01,-6.90
2019,02,27,07,02,-6.90
2019,02,27,07,03,-6.90
2019,02,27,07,04,-6.90
2019,02,27,07,05,-6.90
2019,02,27,07,06,-6.90
2019,02,27,07,07,-6.90
2019,02,27,07,08,-6.80
2019,02,27,07,09,-6.80
2019,02,27,07,10,-6.80
2019,02,27,07,11,-6.80
2019,02,27,07,12,-6.80
2019,02,27,07,13,-6.80
2019,02,27,07,14,-6.80
2019,02,27,07,15,-6.80
2019,02,27,07,16,-6.80
2019,02,27,07,17,-6.80
2019,02,27,07,18,-6.80
2019,02,27,07,19,-6.80
2019,02,27,07,20,-6.80
2019,02,27,07,21,-6.70
2019,02,27,07,22,-6.70
2019,02,27,07,23,-6.70
2019,02,27,07,24,-6.70
2019,02,27,07,25,-6.70
2019,02,27,07,26,-6.70
2019,02,27,07,27,-6.70
2019,02,27,07,28,-6.70
2019,02,27,07,29,-6.70
2019,02,27,07,30,-6.70
2019,02,27,07,31,-6.70
2019,02,27,07,32,-6.70
2019,02,27,07,33,-6.60
2019,02,27,07,34,-6.60
2019,02,27,07,35,-6.60
2019,02,27,07,36,-6.60
2019,02,27,07,37,-6.60
2019,02,27,07,38,-6.60
2019,02,27,07,39,-6.60
2019,02,27,07,40,-6.60
2019,02,27,07,41,-6.60
2019,02,27,07,42,-6.60
2019,02,27,07,43,-6.60
2019,02,27,07,44,-6.50
2019,02,27,07,45,-6.50
2019,02,27,07,46,-6.50
2019,02,27,07,47,-6.50
2019,02,27,07,48,-6.50
2019,02,27,07,49,-6.50
2019,02,27,07,50,-6.40
2019,02,27,07,51,-6.40
2019,02,27,07,52,-6.40
2019,02,27,07,53,-6.40
2019,02,27,07,54,-6.40
2019,02,27,07,55,-6.40
2019,02,27,07,56,-6.30
2019,02,27,07,57,-6.30
2019,02,27,07,58,-6.30
2019,02,27,07,59,-6.30
2019,02,27,08,00,-6.30
2019,02,27,08,01,-6.30
2019,02,27,08,02,-6.30
2019,02,27,08,03,-6.20
2019,02,27,08,04,-6.20
2019,02,27,08,05,-6.20
2019,02,27,08,06,-6.20
2019,02,27,08,07,-6.20
2019,02,27,08,08,-6.20
2019,02,27,08,09,-6.20
2019,02,27,08,10,-6.10
2019,02,27,08,11,-6.10
2019,02,27,08,12,-6.10
2019,02,27,08,13,-6.10
2019,02,27,08,14,-6.10
2019,02,27,08,15,-6.00
2019,02,27,08,16,-6.00
2019,02,27,08,17,-6.00
2019,02,27,08,18,-6.00
2019,02,27,08,19,-6.00
2019,02,27,08,20,-5.90
2019,02,27,08,21,-5.90
2019,02,27,08,22,-5.90
2019,02,27,08,23,-5.90
2019,02,27,08,24,-5.90
2019,02,27,08,25,-5.80
2019,02,27,08,26,-5.80
2019,02,27,08,27,-5.80
2019,02,27,08,28,-5.80
2019,02,27,08,29,-5.80
2019,02,27,08,30,-5.80
2019,02,27,08,31,-5.70
2019,02,27,08,32,-5.70
2019,02,27,08,33,-5.70
2019,02,27,08,34,-5.70
2019,02,27,08,35,-5.70
2019,02,27,08,36,-5.70
2019,02,27,08,37,-5.60
2019,02,27,08,38,-5.60
2019,02,27,08,39,-5.60
2019,02,27,08,40,-5.60
2019,02,27,08,41,-5.60
2019,02,27,08,42,-5.50
2019,02,27,08,43,-5.50
2019,02,27,08,44,-5.50
2019,02,27,08,45,-5.40
2019,02,27,08,46,-5.40
2019,02,27,08,47,-5.40
2019,02,27,08,48,-5.40
2019,02,27,08,49,-5.30
2019,02,27,08,50,-5.30
2019,02,27,08,51,-5.30
2019,02,27,08,52,-5.30
2019,02,27,08,53,-5.30
2019,02,27,08,54,-5.20
2019,02,27,08,55,-5.20
2019,02,27,08,56,-5.20
2019,02,27,08,57,-5.20
2019,02,27,08,58,-5.10
2019,02,27,08,59,-5.10
2019,02,27,09,00,-5.10
2019,02,27,09,01,-5.10
2019,02,27,09,02,-5.00
2019,02,27,09,03,-5.00
2019,02,27,09,04,-5.00
2019,02,27,09,05,-4.90
2019,02,27,09,06,-4.90
2019,02,27,09,07,-4.90
2019,02,27,09,08,-4.90
2019,02,27,09,09,-4.80
2019,02,27,09,10,-4.80
2019,02,27,09,11,-4.80
2019,02,27,09,12,-4.80
2019,02,27,09,13,-4.70
2019,02,27,09,14,-4.70
2019,02,27,09,15,-4.70
2019,02,27,09,16,-4.70
2019,02,27,09,17,-4.60
2019,02,27,09,18,-4.60
2019,02,27,09,19,-4.60
2019,02,27,09,20,-4.60
2019,02,27,09,21,-4.50
2019,02,27,09,22,-4.50
2019,02,27,09,23,-4.40
2019,02,27,09,24,-4.40
2019,02,27,09,25,-4.40
2019,02,27,09,26,-4.30
2019,02,27,09,27,-4.30
2019,02,27,09,28,-4.20
2019,02,27,09,29,-4.20
2019,02,27,09,30,-4.20
2019,02,27,09,31,-4.10
2019,02,27,09,32,-4.10
2019,02,27,09,33,-4.00
2019,02,27,09,34,-4.00
2019,02,27,09,35,-3.90
2019,02,27,09,36,-3.80
2019,02,27,09,37,-3.70
2019,02,27,09,38,-3.60
2019,02,27,09,39,-3.50
2019,02,27,09,40,-3.40
2019,02,27,09,41,-3.30
2019,02,27,09,42,-3.20
2019,02,27,09,43,-3.10
2019,02,27,09,44,-3.00
2019,02,27,09,45,-3.00
2019,02,27,09,46,-2.90
2019,02,27,09,47,-2.80
2019,02,27,09,48,-2.70
2019,02,27,09,49,-2.70
2019,02,27,09,50,-2.60
2019,02,27,09,51,-2.60
2019,02,27,09,52,-2.50
2019,02,27,09,53,-2.40
2019,02,27,09,54,-2.40
2019,02,27,09,55,-2.30
2019,02,27,09,56,-2.30
2019,02,27,09,57,-2.20
2019,02,27,09,58,-2.10
2019,02,27,09,59,-2.00
2019,02,27,10,00,-1.90
2019,02,27,10,01,-1.80
2019,02,27,10,02,-1.80
2019,02,27,10,03,-1.70
2019,02,27,10,04,-1.60
2019,02,27,10,05,-1.60
2019,02,27,10,06,-1.50
2019,02,27,10,07,-1.50
2019,02,27,10,08,-1.40
2019,02,27,10,09,-1.40
2019,02,27,10,10,-1.40
2019,02,27,10,11,-1.40
2019,02,27,10,12,-1.30
2019,02,27,10,13,-1.30
2019,02,27,10,14,-1.30
2019,02,27,10,15,-1.20
2019,02,27,10,16,-1.20
2019,02,27,10,17,-1.10
2019,02,27,10,18,-1.10
2019,02,27,10,19,-1.10
2019,02,27,10,20,-1.00
2019,02,27,10,21,-0.90
2019,02,27,10,22,-0.90
2019,02,27,10,23,-0.90
2019,02,27,10,24,-0.90
2019,02,27,10,25,-0.90
2019,02,27,10,26,-0.90
2019,02,27,10,27,-0.90
2019,02,27,10,28,-0.90
2019,02,27,10,29,-0.90
2019,02,27,10,30,-0.90
2019,02,27,10,31,-0.90
2019,02,27,10,32,-0.90
2019,02,27,10,33,-0.90
2019,02,27,10,34,-0.90
2019,02,27,10,35,-0.90
2019,02,27,10,36,-0.90
2019,02,27,10,37,-0.90
2019,02,27,10,38,-0.90
2019,02,27,10,39,-0.90
2019,02,27,10,40,-0.90
2019,02,27,10,41,-0.80
2019,02,27,10,42,-0.80
2019,02,27,10,43,-0.80
2019,02,27,10,44,-0.70
2019,02,27,10,45,-0.70
2019,02,27,10,46,-0.60
2019,02,27,10,47,-0.60
2019,02,27,10,48,-0.50
2019,02,27,10,49,-0.50
2019,02,27,10,50,-0.40
2019,02,27,10,51,-0.40
2019,02,27,10,52,-0.30
2019,02,27,10,53,-0.30
2019,02,27,10,54,-0.20
2019,02,27,10,55,-0.10
2019,02,27,10,56,0.00
2019,02,27,10,57,0.10
2019,02,27,10,58,0.20
2019,02,27,10,59,0.20
2019,02,27,11,00,0.20
2019,02,27,11,01,0.20
2019,02,27,11,02,0.20
2019,02,27,11,03,0.20
2019,02,27,11,04,0.30
2019,02,27,11,05,0.30
2019,02,27,11,06,0.30
2019,02,27,11,07,0.30
2019,02,27,11,08,0.40
2019,02,27,11,09,0.40
2019,02,27,11,10,0.50
2019,02,27,11,11,0.50
2019,02,27,11,12,0.60
2019,02,27,11,13,0.60
2019,02,27,11,14,0.60
2019,02,27,11,15,0.70
2019,02,27,11,16,0.70
2019,02,27,11,17,0.70
2019,02,27,11,18,0.80
2019,02,27,11,19,0.80
2019,02,27,11,20,0.80
2019,02,27,11,21,0.80
2019,02,27,11,22,0.90
2019,02,27,11,23,0.90
2019,02,27,11,24,0.90
2019,02,27,11,25,0.90
2019,02,27,11,26,1.00
2019,02,27,11,27,1.00
2019,02,27,11,28,1.10
2019,02,27,11,29,1.20
2019,02,27,11,30,1.20
2019,02,27,11,31,1.40
2019,02,27,11,32,1.40
2019,02,27,11,33,1.50
2019,02,27,11,34,1.60
2019,02,27,11,35,1.70
2019,02,27,11,36,1.70
2019,02,27,11,37,1.80
2019,02,27,11,38,1.80
2019,02,27,11,39,1.90
2019,02,27,11,40,2.00
2019,02,27,11,41,2.00
2019,02,27,11,42,2.10
2019,02,27,11,43,2.10
2019,02,27,11,44,2.20
2019,02,27,11,45,2.20
2019,02,27,11,46,2.20
2019,02,27,11,47,2.30
2019,02,27,11,48,2.30
2019,02,27,11,49,2.30
2019,02,27,11,50,2.30
2019,02,27,11,51,2.40
2019,02,27,11,52,2.50
2019,02,27,11,53,2.60
2019,02,27,11,54,2.60
2019,02,27,11,55,2.70
2019,02,27,11,56,2.70
2019,02,27,11,57,2.70
2019,02,27,11,58,2.80
2019,02,27,11,59,2.80
2019,02,27,12,00,2.90
2019,02,27,12,01,3.00
2019,02,27,12,02,3.10
2019,02,27,12,03,3.20
2019,02,27,12,04,3.20
2019,02,27,12,05,3.30
2019,02,27,12,06,3.40
2019,02,27,12,07,3.50
2019,02,27,12,08,3.60
2019,02,27,12,09,3.80
2019,02,27,12,10,3.90
2019,02,27,12,11,4.00
2019,02,27,12,12,4.20
2019,02,27,12,13,4.30
2019,02,27,12,14,4.30
2019,02,27,12,15,4.40
2019,02,27,12,16,4.50
2019,02,27,12,17,4.60
2019,02,27,12,18,4.70
2019,02,27,12,19,4.80
2019,02,27,12,20,4.90
2019,02,27,12,21,5.00
2019,02,27,12,22,5.00
2019,02,27,12,23,5.10
2019,02,27,12,24,5.20
2019,02,27,12,25,5.20
2019,02,27,12,26,5.20
2019,02,27,12,27,5.20
2019,02,27,12,28,5.20
2019,02,27,12,29,5.20
2019,02,27,12,30,5.10
2019,02,27,12,31,5.10
2019,02,27,12,32,5.00
2019,02,27,12,33,5.00
2019,02,27,12,34,4.90
2019,02,27,12,35,4.90
2019,02,27,12,36,4.80
2019,02,27,12,37,4.80
2019,02,27,12,38,4.80
2019,02,27,12,39,4.80
2019,02,27,12,40,4.70
2019,02,27,12,41,4.70
2019,02,27,12,42,4.70
2019,02,27,12,43,4.70
2019,02,27,12,44,4.70
2019,02,27,12,45,4.60
2019,02,27,12,46,4.60
2019,02,27,12,47,4.60
2019,02,27,12,48,4.60
2019,02,27,12,49,4.60
2019,02,27,12,50,4.60
2019,02,27,12,51,4.60
2019,02,27,12,52,4.60
2019,02,27,12,53,4.50
2019,02,27,12,54,4.50
2019,02,27,12,55,4.40
2019,02,27,12,56,4.40
2019,02,27,12,57,4.40
2019,02,27,12,58,4.40
2019,02,27,12,59,4.40
2019,02,27,13,00,4.40
2019,02,27,13,01,4.40
2019,02,27,13,02,4.40
2019,02,27,13,03,4.30
2019,02,27,13,04,4.30
2019,02,27,13,05,4.30
2019,02,27,13,06,4.30
2019,02,27,13,07,4.30
2019,02,27,13,08,4.30
2019,02,27,13,09,4.40
2019,02,27,13,10,4.40
2019,02,27,13,11,4.40
2019,02,27,13,12,4.40
2019,02,27,13,13,4.40
2019,02,27,13,14,4.40
2019,02,27,13,15,4.40
2019,02,27,13,16,4.50
2019,02,27,13,17,4.50
2019,02,27,13,18,4.50
2019,02,27,13,19,4.60
2019,02,27,13,20,4.60
2019,02,27,13,21,4.60
2019,02,27,13,22,4.70
2019,02,27,13,23,4.70
2019,02,27,13,24,4.80
2019,02,27,13,25,4.80
2019,02,27,13,26,4.80
2019,02,27,13,27,4.90
2019,02,27,13,28,5.00
2019,02,27,13,29,5.10
2019,02,27,13,30,5.20
2019,02,27,13,31,5.20
2019,02,27,13,32,5.20
2019,02,27,13,33,5.20
2019,02,27,13,34,5.30
2019,02,27,13,35,5.30
2019,02,27,13,36,5.30
2019,02,27,13,37,5.40
2019,02,27,13,38,5.40
2019,02,27,13,39,5.50
2019,02,27,13,40,5.60
2019,02,27,13,41,5.70
2019,02,27,13,42,5.70
2019,02,27,13,43,5.80
2019,02,27,13,44,5.90
2019,02,27,13,45,6.00
2019,02,27,13,46,6.10
2019,02,27,13,47,6.10
2019,02,27,13,48,6.20
2019,02,27,13,49,6.30
2019,02,27,13,50,6.40
2019,02,27,13,51,6.50
2019,02,27,13,52,6.60
2019,02,27,13,53,6.60
2019,02,27,13,54,6.70
2019,02,27,13,55,6.70
2019,02,27,13,56,6.70
2019,02,27,13,57,6.80
2019,02,27,13,58,6.80
2019,02,27,13,59,6.80
2019,02,27,14,00,6.80
2019,02,27,14,01,6.80
2019,02,27,14,02,6.90
2019,02,27,14,03,6.90
2019,02,27,14,04,6.90
2019,02,27,14,05,6.90
2019,02,27,14,06,6.90
2019,02,27,14,07,6.90
2019,02,27,14,08,6.90
2019,02,27,14,09,6.90
2019,02,27,14,10,7.00
2019,02,27,14,11,7.00
2019,02,27,14,12,7.00
2019,02,27,14,13,7.00
2019,02,27,14,14,7.10
2019,02,27,14,15,7.10
2019,02,27,14,16,7.10
2019,02,27,14,17,7.10
2019,02,27,14,18,7.10
2019,02,27,14,19,7.10
2019,02,27,14,20,7.20
2019,02,27,14,21,7.20
2019,02,27,14,22,7.20
2019,02,27,14,23,7.30
2019,02,27,14,24,7.40
2019,02,27,14,25,7.40
2019,02,27,14,26,7.50
2019,02,27,14,27,7.50
2019,02,27,14,28,7.60
2019,02,27,14,29,7.60
2019,02,27,14,30,7.60
2019,02,27,14,31,7.60
2019,02,27,14,32,7.60
2019,02,27,14,33,7.60
2019,02,27,14,34,7.60
2019,02,27,14,35,7.60
2019,02,27,14,36,7.60
2019,02,27,14,37,7.60
2019,02,27,14,38,7.50
2019,02,27,14,39,7.50
2019,02,27,14,40,7.50
2019,02,27,14,41,7.40
2019,02,27,14,42,7.40
2019,02,27,14,43,7.40
2019,02,27,14,44,7.40
2019,02,27,14,45,7.40
2019,02,27,14,46,7.40
2019,02,27,14,47,7.40
2019,02,27,14,48,7.40
2019,02,27,14,49,7.40
2019,02,27,14,50,7.40
2019,02,27,14,51,7.40
2019,02,27,14,52,7.40
2019,02,27,14,53,7.40
2019,02,27,14,54,7.30
2019,02,27,14,55,7.30
2019,02,27,14,56,7.30
2019,02,27,14,57,7.30
2019,02,27,14,58,7.30
2019,02,27,14,59,7.30
2019,02,27,15,00,7.20
2019,02,27,15,01,7.20
2019,02,27,15,02,7.20
2019,02,27,15,03,7.10
2019,02,27,15,04,7.10
2019,02,27,15,05,7.00
2019,02,27,15,06,7.00
2019,02,27,15,07,7.00
2019,02,27,15,08,7.00
2019,02,27,15,09,6.90
2019,02,27,15,10,6.90
2019,02,27,15,11,6.90
2019,02,27,15,12,6.90
2019,02,27,15,13,6.90
2019,02,27,15,14,6.90
2019,02,27,15,15,6.90
2019,02,27,15,16,6.90
2019,02,27,15,17,6.90
2019,02,27,15,18,6.90
2019,02,27,15,19,6.90
2019,02,27,15,20,6.90
2019,02,27,15,21,6.90
2019,02,27,15,22,6.90
2019,02,27,15,23,6.80
2019,02,27,15,24,6.80
2019,02,27,15,25,6.80
2019,02,27,15,26,6.80
2019,02,27,15,27,6.80
2019,02,27,15,28,6.70
2019,02,27,15,29,6.70
2019,02,27,15,30,6.70
2019,02,27,15,31,6.60
2019,02,27,15,32,6.60
2019,02,27,15,33,6.60
2019,02,27,15,34,6.60
2019,02,27,15,35,6.60
2019,02,27,15,36,6.60
2019,02,27,15,37,6.50
2019,02,27,15,38,6.40
2019,02,27,15,39,6.40
2019,02,27,15,40,6.30
2019,02,27,15,41,6.30
2019,02,27,15,42,6.20
2019,02,27,15,43,6.10
2019,02,27,15,44,6.00
2019,02,27,15,45,5.90
2019,02,27,15,46,5.90
2019,02,27,15,47,5.80
2019,02,27,15,48,5.70
2019,02,27,15,49,5.50
2019,02,27,15,50,5.40
2019,02,27,15,51,5.30
2019,02,27,15,52,5.20
2019,02,27,15,53,5.20
2019,02,27,15,54,5.10
2019,02,27,15,55,5.10
2019,02,27,15,56,5.10
2019,02,27,15,57,5.10
2019,02,27,15,58,5.00
2019,02,27,15,59,5.00
2019,02,27,16,00,5.00
2019,02,27,16,01,4.90
2019,02,27,16,02,4.90
2019,02,27,16,03,4.90
2019,02,27,16,04,4.90
2019,02,27,16,05,4.90
2019,02,27,16,06,4.90
2019,02,27,16,07,4.90
2019,02,27,16,08,4.90
2019,02,27,16,09,4.80
2019,02,27,16,10,4.80
2019,02,27,16,11,4.80
2019,02,27,16,12,4.80
2019,02,27,16,13,4.70
2019,02,27,16,14,4.70
2019,02,27,16,15,4.60
2019,02,27,16,16,4.60
2019,02,27,16,17,4.50
2019,02,27,16,18,4.40
2019,02,27,16,19,4.30
2019,02,27,16,20,4.20
2019,02,27,16,21,4.20
2019,02,27,16,22,4.10
2019,02,27,16,23,4.00
2019,02,27,16,24,4.00
2019,02,27,16,25,4.00
2019,02,27,16,26,3.90
2019,02,27,16,27,3.90
2019,02,27,16,28,3.90
2019,02,27,16,29,3.90
2019,02,27,16,30,3.80
2019,02,27,16,31,3.80
2019,02,27,16,32,3.80
2019,02,27,16,33,3.80
2019,02,27,16,34,3.80
2019,02,27,16,35,3.80
2019,02,27,16,36,3.90
2019,02,27,16,37,3.90
2019,02,27,16,38,3.90
2019,02,27,16,39,3.90
2019,02,27,16,40,3.90
2019,02,27,16,41,3.90
2019,02,27,16,42,3.90
2019,02,27,16,43,3.90
2019,02,27,16,44,3.80
2019,02,27,16,45,3.80
2019,02,27,16,46,3.80
2019,02,27,16,47,3.80
2019,02,27,16,48,3.70
2019,02,27,16,49,3.70
2019,02,27,16,50,3.70
2019,02,27,16,51,3.60
2019,02,27,16,52,3.60
2019,02,27,16,53,3.60
2019,02,27,16,54,3.60
2019,02,27,16,55,3.60
2019,02,27,16,56,3.60
2019,02,27,16,57,3.50
2019,02,27,16,58,3.50
2019,02,27,16,59,3.40
2019,02,27,17,00,3.40
2019,02,27,17,01,3.40
2019,02,27,17,02,3.40
2019,02,27,17,03,3.50
2019,02,27,17,04,3.50
2019,02,27,17,05,3.50
2019,02,27,17,06,3.50
2019,02,27,17,07,3.50
2019,02,27,17,08,3.60
2019,02,27,17,09,3.60
2019,02,27,17,10,3.60
2019,02,27,17,11,3.60
2019,02,27,17,12,3.60
2019,02,27,17,13,3.60
2019,02,27,17,14,3.60
2019,02,27,17,15,3.60
2019,02,27,17,16,3.60
2019,02,27,17,17,3.60
2019,02,27,17,18,3.60
2019,02,27,17,19,3.60
2019,02,27,17,20,3.60
2019,02,27,17,21,3.60
2019,02,27,17,22,3.60
2019,02,27,17,23,3.60
2019,02,27,17,24,3.70
2019,02,27,17,25,3.70
2019,02,27,17,26,3.70
2019,02,27,17,27,3.70
2019,02,27,17,28,3.70
2019,02,27,17,29,3.70
2019,02,27,17,30,3.70
2019,02,27,17,31,3.70
2019,02,27,17,32,3.70
2019,02,27,17,33,3.70
2019,02,27,17,34,3.70
2019,02,27,17,35,3.70
2019,02,27,17,36,3.60